Overview Statistics Trail Chart Weather Telemetry Raw packets
 

This is the latest recevied weather packets stored in our database for station/object IU3OVK-13. If no packets are shown the sender has not sent any weather packets the latest 10 day(s).

<< 24 25 26 27 28 29 30 >>
Time Temp. Humidity Pressure Rain* Wind** Luminosity Snow
1788139106 18.33° C 99% 1007.5 hPa - - - -
1788138489 17.78° C 99% 1007.7 hPa - - - -
1788136625 18.89° C 99% 1007.5 hPa - - - -
1788136005 18.33° C 99% 1007.7 hPa - - - -
1788135385 18.89° C 99% 1007.8 hPa - - - -
1788134145 19.44° C 99% 1007.7 hPa - - - -
1788133524 18.89° C 99% 1007.6 hPa - - - -
1788132904 18.33° C 99% 1007.9 hPa - - - -
1788131044 20° C 99% 1008.2 hPa - - - -
1788130423 20.56° C 99% 1008.2 hPa - - - -
1788129820 20.56° C 99% 1008.2 hPa - - - -
1788119844 23.33° C 99% 1008.8 hPa - - - -
1788119224 23.33° C 99% 1009 hPa - - - -
1788118604 23.89° C 99% 1008.8 hPa - - - -
1788117984 23.33° C 99% 1008.8 hPa - - - -
1788117363 24.44° C 99% 1008.4 hPa - - - -
1788115503 25.56° C 99% 1008.8 hPa - - - -
1788114883 25.56° C 99% 1008.4 hPa - - - -
1788114263 26.11° C 99% 1008.6 hPa - - - -
1788113022 26.67° C 99% 1007.9 hPa - - - -
1788112402 27.22° C 99% 1007.7 hPa - - - -
1788111782 27.22° C 99% 1007.5 hPa - - - -
1788111161 27.78° C 99% 1007.4 hPa - - - -
1788110541 28.33° C 99% 1007.2 hPa - - - -
1788109921 28.33° C 99% 1007.1 hPa - - - -

* Rain since midnight (hover to see other rain measurements)
** Current wind speed in m/s (hover to see current wind gust speed)